[[{"header":{"parameterUnit":"m.s-1","parameterCategory":2,"la1":30.2991,"la2":30.254,"lo1":-89.0895,"lo2":-89.0444,"dy":0.0017,"dx":0.0017,"nx":28,"ny":28,"refTime":"2024-11-28T09:00:00:Z","depth":"0","parameterNumber":2,"parameterNumberName":"U-component_of_CURRENTS"},"data":[0,0,0,0,0,0,0,0,0,0,0,0,0,0,0,0,0,0,0,0,0,0,0,0,0,0,0,0,0,0,0,0,0,0,0,0,0,0,0,0,0,0,0,0,0,0,0,0,0,0,0,0,0,0,0,0,0,0,0.2614,0.2614,0,0.2636,0.2636,0.2636,0.2629,0.2629,0.2629,0.2629,0.2601,0.2601,0.26,0,0,0,0,0,0,0,0,0,0,0,0,0,0.2553,0.2554,0.2614,0.2614,0.2615,0.2636,0.2636,0.2636,0.2629,0.2629,0.2629,0.2629,0.2602,0.2601,0.26,0,0,0,0,0,0,0,0,0,0,0,0,0,0.2574,0.2555,0.2613,0.2617,0.2618,0.2636,0.2636,0.2636,0.2629,0.2629,0.2629,0.2629,0.2602,0.2601,0.26,0.2597,0,0,0.2597,0.2597,0,0,0,0,0,0,0,0,0.2573,0.2576,0.2616,0.2617,0.2618,0.2633,0.2605,0.2622,0.2629,0.2621,0.2629,0.2629,0.261,0.2609,0.2608,0.2595,0.2594,0.2597,0.2596,0.2596,0.2596,0,0,0,0,0,0,0,0.2572,0.2575,0.2618,0.2617,0.2618,0.2614,0.2617,0.2608,0.2612,0.2622,0.2622,0.2631,0.261,0.2609,0.2607,0.2594,0.2597,0.2596,0.2595,0.2595,0.2609,0.261,0,0,0,0,0,0,0.2578,0.2574,0.2618,0.2619,0.2599,0.2616,0.2618,0.2625,0.2613,0.2613,0.2631,0.2631,0.2611,0.2608,0.2606,0.2632,0.2596,0.2595,0.2594,0.2608,0.2609,0.261,0,0,0,0,0,0,0.2577,0.2582,0.2617,0.26,0.2605,0.2617,0.2625,0.2626,0.2631,0.2622,0.262,0.2637,0.2611,0.2608,0.261,0.2629,0.2594,0.2594,0.2607,0.2609,0.261,0.2664,0,0,0,0,0,0,0.2575,0.2581,0.2584,0.2601,0.2607,0.2636,0.2626,0.2627,0.2638,0.2638,0.2625,0.2623,0.261,0.2611,0.2609,0.2627,0.2593,0.2606,0.2608,0.2609,0.2661,0.2667,0.2672,0,0,0,0,0,0.2572,0.2581,0.2584,0.259,0.2612,0.2637,0.2639,0.2644,0.2639,0.2646,0.2639,0.2623,0.2621,0.2611,0.2608,0.2627,0.2605,0.2607,0.2609,0.2658,0.2666,0.2672,0,0,0,0,0,0,0.255,0.2582,0.2586,0.2601,0.2622,0.2638,0.2645,0.2649,0.2649,0.2648,0.2632,0.2629,0.2641,0.2626,0.2615,0.2637,0.2612,0.2613,0.265,0.2657,0.2662,0.2678,0.2592,0,0,0,0,0,0.255,0.2568,0.2594,0.2607,0.2618,0.2632,0.2641,0.2649,0.2656,0.2656,0.2649,0.2643,0.2647,0.2645,0.2642,0.2649,0.2665,0.2661,0.2666,0.2671,0.2682,0.2721,0.2732,0.2618,0.2618,0.2617,0,0,0.2544,0.2566,0.2574,0.2605,0.2618,0.2643,0.2636,0.2658,0.2678,0.2652,0.2666,0.2662,0.2654,0.2668,0.2671,0.2657,0.2716,0.2674,0.2678,0.2687,0.2725,0.2736,0.2746,0.2619,0.2619,0.2619,0,0,0.2549,0.2562,0.2582,0.2604,0.2637,0.2651,0.2661,0.2682,0.2689,0.2704,0.2697,0.2709,0.27,0.271,0.271,0.2745,0.2747,0.274,0.2779,0.2817,0.2827,0.2836,0.289,0.2903,0.2741,0.2741,0.2741,0,0.2539,0.2571,0.259,0.2619,0.2641,0.2658,0.2685,0.2699,0.2718,0.2732,0.2715,0.2737,0.2725,0.276,0.2772,0.2759,0.2785,0.2753,0.2825,0.2834,0.2843,0.2895,0.2909,0.2744,0.2743,0.2743,0.2743,0,0.2564,0.2591,0.2606,0.265,0.2674,0.2702,0.2732,0.2753,0.2761,0.2775,0.2807,0.2801,0.2818,0.2815,0.2801,0.2856,0.2858,0.2831,0.281,0.2858,0.291,0.2924,0.2748,0.2747,0.2746,0.2745,0,0,0.2538,0.2609,0.2614,0.2643,0.2696,0.2719,0.276,0.2804,0.2839,0.2849,0.2893,0.2898,0.2901,0.2904,0.2895,0.2921,0.3001,0.2902,0.2902,0.296,0.3106,0.3179,0.3201,0.2986,0.2988,0.2989,0.3126,0,0.2551,0.261,0.2644,0.2697,0.2729,0.2767,0.2806,0.2848,0.2879,0.2924,0.2935,0.2969,0.2934,0.2951,0.2974,0.2996,0.3036,0.2968,0.3047,0.305,0.3113,0.3219,0.3264,0.3396,0.3139,0.3141,0.3143,0,0.2562,0.2606,0.266,0.2733,0.2749,0.2782,0.2857,0.2896,0.2965,0.2989,0.3032,0.3047,0.3101,0.3054,0.3134,0.3093,0.3109,0.3119,0.3124,0.3184,0.315,0.3303,0.343,0.3455,0.3164,0.3162,0.3161,0,0.2539,0.2614,0.2659,0.2683,0.2766,0.2796,0.2839,0.2912,0.2963,0.3041,0.3091,0.3142,0.319,0.3213,0.3246,0.3196,0.3338,0.3268,0.3355,0.336,0.3412,0.3419,0.3577,0.3332,0.3332,0.3331,0.3331,0,0.2542,0.2575,0.265,0.2677,0.2729,0.2789,0.2855,0.2908,0.3002,0.3076,0.3123,0.3208,0.3231,0.3312,0.3306,0.3409,0.3396,0.3405,0.3416,0.3434,0.3441,0.3471,0.3432,0.3337,0.3335,0.3334,0.3334,0,0.2505,0.256,0.2609,0.2693,0.2721,0.2754,0.2859,0.291,0.3008,0.3113,0.3149,0.3286,0.3414,0.3453,0.3525,0.3518,0.3546,0.3605,0.3642,0.3656,0.3743,0.3704,0.368,0.3535,0.3732,0.3734,0.3737,0,0.2489,0.2514,0.26,0.263,0.2665,0.2731,0.2778,0.2889,0.296,0.3168,0.3223,0.3404,0.3535,0.3708,0.3761,0.3832,0.368,0.3876,0.3782,0.3808,0.3771,0.3567,0.3426,0.3874,0.3877,0.388,0.3882,0,0.245,0.248,0.2523,0.2588,0.2637,0.2697,0.2784,0.2844,0.2993,0.3118,0.3316,0.3455,0.3703,0.3852,0.3977,0.4,0.3798,0.3935,0.3951,0.3913,0.3711,0.3557,0.3724,0.3906,0.3904,0.3902,0.3901,0.39,0.2403,0.2419,0.248,0.2531,0.259,0.2649,0.2667,0.2792,0.292,0.3091,0.3306,0.3518,0.3864,0.4089,0.4087,0.4215,0.3988,0.4171,0.413,0.3926,0.3766,0.4009,0.4201,0.42,0.42,0.4199,0.4199,0,0.2328,0.2368,0.2421,0.2473,0.2497,0.2563,0.2654,0.2667,0.2773,0.3038,0.3222,0.3673,0.3969,0.4194,0.4476,0.4431,0.4162,0.4369,0.4109,0.3951,0.4224,0.4217,0.4436,0.4436,0.4436,0.4436,0.4436,0.4436,0.2291,0.2308,0.2341,0.2359,0.2396,0.239,0.2414,0.2476,0.2637,0.2917,0.3188,0.3443,0.4001,0.4622,0.4791,0.4675,0.4299,0.426,0.4053,0.4347,0.4323,0.4301,0.429,0.452,0.452,0.3677,0.3672,0.3668]},{"header":{"parameterUnit":"m.s-1","parameterCategory":2,"la1":30.2991,"la2":30.254,"lo1":-89.0895,"lo2":-89.0444,"dy":0.0017,"dx":0.0017,"nx":28,"ny":28,"refTime":"2024-11-28T09:00:00:Z","depth":"0","parameterNumber":3,"parameterNumberName":"V-component_of_CURRENTS"},"data":[0,0,0,0,0,0,0,0,0,0,0,0,0,0,0,0,0,0,0,0,0,0,0,0,0,0,0,0,0,0,0,0,0,0,0,0,0,0,0,0,0,0,0,0,0,0,0,0,0,0,0,0,0,0,0,0,0,0,-0.0523,-0.0523,0,-0.058,-0.0581,-0.0582,-0.0622,-0.0623,-0.0623,-0.0623,-0.0669,-0.067,-0.0671,0,0,0,0,0,0,0,0,0,0,0,0,0,-0.049,-0.049,-0.0523,-0.0523,-0.0524,-0.058,-0.0581,-0.0582,-0.0622,-0.0623,-0.0623,-0.0623,-0.0669,-0.067,-0.0671,0,0,0,0,0,0,0,0,0,0,0,0,0,-0.0522,-0.049,-0.0523,-0.0551,-0.0554,-0.058,-0.0581,-0.0582,-0.0622,-0.0623,-0.0623,-0.0624,-0.0668,-0.067,-0.0671,-0.067,0,0,-0.0675,-0.0676,0,0,0,0,0,0,0,0,-0.052,-0.0523,-0.0546,-0.0549,-0.0553,-0.0595,-0.0586,-0.0611,-0.0622,-0.0596,-0.0623,-0.0624,-0.0643,-0.0646,-0.0656,-0.0672,-0.0674,-0.0675,-0.0676,-0.0677,-0.0677,0,0,0,0,0,0,0,-0.0517,-0.0521,-0.0546,-0.0547,-0.0551,-0.0575,-0.058,-0.0592,-0.0616,-0.0599,-0.0602,-0.0608,-0.0644,-0.0655,-0.0658,-0.0675,-0.0675,-0.0677,-0.0678,-0.0678,-0.0697,-0.0697,0,0,0,0,0,0,-0.0507,-0.0518,-0.0544,-0.0547,-0.0537,-0.0575,-0.0581,-0.0581,-0.0616,-0.0622,-0.0607,-0.061,-0.0652,-0.0656,-0.0659,-0.0652,-0.0677,-0.0678,-0.0679,-0.0698,-0.0697,-0.0697,0,0,0,0,0,0,-0.0506,-0.0509,-0.0542,-0.0535,-0.054,-0.0575,-0.0575,-0.0582,-0.059,-0.0623,-0.0629,-0.0609,-0.0653,-0.0657,-0.0665,-0.0654,-0.0679,-0.068,-0.0698,-0.0697,-0.0697,-0.0642,0,0,0,0,0,0,-0.0505,-0.0508,-0.0503,-0.0534,-0.054,-0.0546,-0.0575,-0.0582,-0.0593,-0.0596,-0.0626,-0.0631,-0.0653,-0.0663,-0.0666,-0.0656,-0.0681,-0.0698,-0.0698,-0.0697,-0.0644,-0.0639,-0.0636,0,0,0,0,0,-0.0503,-0.0489,-0.0503,-0.0506,-0.0533,-0.0546,-0.0551,-0.0578,-0.0592,-0.0589,-0.0612,-0.063,-0.0662,-0.0663,-0.0668,-0.0658,-0.0699,-0.0698,-0.0697,-0.0646,-0.064,-0.0636,0,0,0,0,0,0,-0.0469,-0.0493,-0.0508,-0.0501,-0.0519,-0.0552,-0.0551,-0.0571,-0.0588,-0.059,-0.0624,-0.063,-0.0634,-0.0653,-0.0654,-0.0663,-0.0684,-0.0684,-0.0644,-0.0639,-0.0634,-0.0617,-0.0682,0,0,0,0,0,-0.046,-0.0457,-0.0485,-0.0479,-0.0485,-0.0518,-0.0527,-0.0544,-0.0565,-0.0573,-0.0596,-0.0619,-0.0635,-0.0641,-0.0659,-0.0659,-0.0687,-0.0657,-0.0653,-0.0649,-0.0638,-0.0677,-0.0675,-0.0694,-0.0694,-0.0694,0,0,-0.0445,-0.0458,-0.0457,-0.0472,-0.0489,-0.0486,-0.0524,-0.0529,-0.0526,-0.0574,-0.0574,-0.0604,-0.0632,-0.0637,-0.064,-0.0649,-0.0659,-0.0648,-0.0645,-0.0636,-0.0676,-0.0674,-0.0672,-0.0694,-0.0694,-0.0694,0,0,-0.0411,-0.0424,-0.0411,-0.0421,-0.044,-0.0458,-0.0456,-0.0485,-0.0497,-0.0504,-0.0539,-0.056,-0.0583,-0.0603,-0.0616,-0.0598,-0.0637,-0.0606,-0.0567,-0.0604,-0.0602,-0.0602,-0.0637,-0.064,-0.0601,-0.0601,-0.0601,0,-0.0393,-0.0381,-0.0409,-0.0399,-0.0398,-0.044,-0.0422,-0.0439,-0.0468,-0.0472,-0.0494,-0.0538,-0.0566,-0.0572,-0.057,-0.0587,-0.0616,-0.0582,-0.0598,-0.0598,-0.0598,-0.0635,-0.0638,-0.0599,-0.0599,-0.0599,-0.0599,0,-0.0353,-0.0342,-0.0332,-0.0333,-0.0336,-0.0326,-0.0352,-0.0358,-0.0381,-0.0404,-0.0421,-0.0468,-0.0493,-0.051,-0.0534,-0.0544,-0.0568,-0.059,-0.0609,-0.0592,-0.0633,-0.0637,-0.0595,-0.0596,-0.0596,-0.0597,0,0,-0.031,-0.0304,-0.03,-0.0285,-0.0298,-0.0291,-0.0286,-0.0291,-0.0283,-0.0327,-0.0323,-0.037,-0.0406,-0.0423,-0.0465,-0.0499,-0.0531,-0.0539,-0.0542,-0.057,-0.0614,-0.0641,-0.065,-0.0558,-0.0559,-0.0559,-0.0643,0,-0.0268,-0.0227,-0.0239,-0.0197,-0.0176,-0.0204,-0.019,-0.0203,-0.0229,-0.0238,-0.0297,-0.0313,-0.037,-0.0383,-0.0426,-0.05,-0.0541,-0.0506,-0.0629,-0.0633,-0.0656,-0.0655,-0.0684,-0.0762,-0.0648,-0.0649,-0.065,0,-0.0221,-0.0198,-0.0148,-0.0119,-0.0112,-0.0096,-0.008,-0.0077,-0.0108,-0.013,-0.017,-0.0219,-0.027,-0.0325,-0.0445,-0.0421,-0.0509,-0.0576,-0.0581,-0.0627,-0.0669,-0.0761,-0.0776,-0.1032,-0.0658,-0.0657,-0.0657,0,-0.0166,-0.0132,-0.0085,-0.0076,-0.0054,-0.0035,-0.0029,-0.0043,-0.0027,-0.0066,-0.0062,-0.0144,-0.0173,-0.0293,-0.0428,-0.044,-0.0566,-0.0602,-0.0711,-0.0715,-0.0772,-0.0779,-0.1044,-0.0691,-0.0691,-0.0691,-0.069,0,-0.0112,-0.0073,-0.0054,-0.0025,0.0038,0.0023,0.0073,0.0064,0.0059,0.0095,-0.0002,0.001,-0.0166,-0.0257,-0.0399,-0.0563,-0.0547,-0.0702,-0.0737,-0.0754,-0.0759,-0.101,-0.1147,-0.0694,-0.0693,-0.0693,-0.0692,0,-0.0054,-0.0045,0.0014,0.0049,0.0068,0.0109,0.0151,0.0184,0.0163,0.0206,0.0202,0.0123,0.0005,-0.0177,-0.0368,-0.0513,-0.084,-0.0739,-0.0746,-0.078,-0.1124,-0.1254,-0.1563,-0.171,-0.088,-0.0881,-0.0882,0,-0.0019,0.0018,0.0078,0.0124,0.0145,0.0198,0.0245,0.024,0.0284,0.029,0.033,0.0228,0.0191,-0.0109,-0.0394,-0.0659,-0.0894,-0.0871,-0.0902,-0.1151,-0.1323,-0.144,-0.155,-0.0964,-0.0965,-0.0967,-0.0968,0,0.0058,0.0075,0.0127,0.0219,0.0278,0.0345,0.0409,0.0464,0.0474,0.0512,0.056,0.0529,0.0234,-0.0034,-0.0419,-0.0632,-0.11,-0.0905,-0.1171,-0.1417,-0.1555,-0.1709,-0.0903,-0.0979,-0.0978,-0.0977,-0.0976,-0.0976,0.0122,0.0171,0.0242,0.0331,0.04,0.0498,0.0567,0.0643,0.0734,0.0809,0.0755,0.0738,0.0302,-0.0222,-0.0561,-0.1204,-0.1202,-0.1389,-0.1527,-0.1622,-0.1777,-0.099,-0.1098,-0.1098,-0.1097,-0.1097,-0.1097,0,0.0216,0.0268,0.0354,0.046,0.0548,0.0565,0.0689,0.0761,0.0891,0.0945,0.0978,0.0738,0.0187,-0.0396,-0.1206,-0.1696,-0.1931,-0.2,-0.2196,-0.2278,-0.1584,-0.1599,-0.1811,-0.1811,-0.181,-0.181,-0.181,-0.181,0.027,0.0372,0.0412,0.0576,0.0647,0.0767,0.0842,0.0946,0.1011,0.1063,0.1032,0.0962,0.0502,-0.0951,-0.2027,-0.2297,-0.2731,-0.2827,-0.302,-0.2561,-0.2515,-0.2471,-0.252,-0.2921,-0.2923,-0.3676,-0.3684,-0.369]}],[{"header":{"parameterUnit":"m.s-1","parameterCategory":2,"la1":30.2991,"la2":30.254,"lo1":-89.0895,"lo2":-89.0444,"dy":0.0017,"dx":0.0017,"nx":28,"ny":28,"refTime":"2024-11-28T09:00:00:Z","depth":"2","parameterNumber":2,"parameterNumberName":"U-component_of_CURRENTS"},"data":[0,0,0,0,0,0,0,0,0,0,0,0,0,0,0,0,0,0,0,0,0,0,0,0,0,0,0,0,0,0,0,0,0,0,0,0,0,0,0,0,0,0,0,0,0,0,0,0,0,0,0,0,0,0,0,0,0,0,0.2606,0.2607,0,0.2629,0.2629,0.2629,0.2622,0.2622,0.2622,0.2622,0.2595,0.2595,0.2594,0,0,0,0,0,0,0,0,0,0,0,0,0,0.2547,0.2548,0.2606,0.2607,0.2608,0.2629,0.2629,0.2629,0.2622,0.2622,0.2622,0.2622,0.2596,0.2595,0.2594,0,0,0,0,0,0,0,0,0,0,0,0,0,0.2567,0.2548,0.2606,0.261,0.2611,0.2629,0.2629,0.2629,0.2622,0.2622,0.2622,0.2622,0.2596,0.2595,0.2594,0.259,0,0,0.2591,0.2591,0,0,0,0,0,0,0,0,0.2566,0.2569,0.2609,0.261,0.2611,0.2626,0.2598,0.2615,0.2622,0.2614,0.2622,0.2622,0.2604,0.2602,0.2602,0.2589,0.2588,0.2591,0.259,0.259,0.259,0,0,0,0,0,0,0,0.2565,0.2568,0.2611,0.261,0.2611,0.2607,0.2609,0.2601,0.2605,0.2615,0.2615,0.2624,0.2603,0.2603,0.2601,0.2588,0.2591,0.259,0.2589,0.2589,0.2604,0.2605,0,0,0,0,0,0,0.2571,0.2567,0.261,0.2612,0.2592,0.2609,0.2611,0.2618,0.2606,0.2606,0.2624,0.2624,0.2604,0.2602,0.26,0.2626,0.259,0.2589,0.2588,0.2603,0.2604,0.2605,0,0,0,0,0,0,0.257,0.2575,0.261,0.2593,0.2598,0.261,0.2618,0.2619,0.2624,0.2615,0.2613,0.263,0.2604,0.2601,0.2604,0.2624,0.2589,0.2588,0.2602,0.2603,0.2604,0.2658,0,0,0,0,0,0,0.2568,0.2574,0.2578,0.2594,0.2599,0.2629,0.2618,0.2619,0.2631,0.2631,0.2619,0.2616,0.2604,0.2605,0.2603,0.2622,0.2587,0.26,0.2602,0.2604,0.2655,0.2661,0.2666,0,0,0,0,0,0.2565,0.2574,0.2577,0.2583,0.2605,0.263,0.2632,0.2637,0.2632,0.2639,0.2633,0.2617,0.2615,0.2605,0.2602,0.2621,0.2599,0.2602,0.2604,0.2652,0.266,0.2666,0,0,0,0,0,0,0.2544,0.2575,0.2579,0.2595,0.2615,0.263,0.2638,0.2642,0.2643,0.2641,0.2625,0.2622,0.2635,0.2619,0.2609,0.2631,0.2606,0.2608,0.2644,0.2651,0.2657,0.2672,0.2586,0,0,0,0,0,0.2544,0.2562,0.2587,0.26,0.2612,0.2625,0.2634,0.2642,0.2649,0.2649,0.2642,0.2637,0.264,0.2639,0.2636,0.2643,0.2659,0.2655,0.2661,0.2666,0.2677,0.2715,0.2726,0.2612,0.2612,0.2612,0,0,0.2537,0.2559,0.2567,0.2598,0.2611,0.2636,0.2629,0.2651,0.2671,0.2645,0.266,0.2655,0.2647,0.2662,0.2665,0.2651,0.271,0.2668,0.2673,0.2681,0.2719,0.273,0.274,0.2613,0.2613,0.2613,0,0,0.2543,0.2556,0.2576,0.2598,0.2631,0.2644,0.2654,0.2675,0.2682,0.2698,0.2691,0.2702,0.2694,0.2704,0.2704,0.2739,0.2741,0.2734,0.2773,0.281,0.282,0.2829,0.2883,0.2896,0.2735,0.2735,0.2735,0,0.2534,0.2565,0.2584,0.2613,0.2635,0.2651,0.2679,0.2692,0.2711,0.2725,0.2708,0.2731,0.2719,0.2754,0.2766,0.2754,0.2779,0.2747,0.2819,0.2828,0.2836,0.2889,0.2903,0.2738,0.2738,0.2737,0.2737,0,0.2558,0.2585,0.26,0.2644,0.2668,0.2696,0.2725,0.2746,0.2754,0.2768,0.2801,0.2794,0.2812,0.2809,0.2795,0.285,0.2852,0.2824,0.2804,0.2851,0.2903,0.2917,0.2742,0.2741,0.274,0.274,0,0,0.2532,0.2603,0.2608,0.2637,0.2689,0.2712,0.2753,0.2797,0.2832,0.2842,0.2886,0.2891,0.2895,0.2897,0.2889,0.2915,0.2994,0.2895,0.2896,0.2953,0.3098,0.3169,0.319,0.2979,0.2981,0.2982,0.3118,0,0.2546,0.2604,0.2638,0.2691,0.2723,0.2761,0.2799,0.2841,0.2872,0.2917,0.2928,0.2961,0.2927,0.2944,0.2967,0.2989,0.3029,0.2961,0.3039,0.3042,0.3103,0.3208,0.2827,0.2921,0.3131,0.3133,0.3135,0,0.2557,0.26,0.2654,0.2726,0.2743,0.2775,0.285,0.2889,0.2958,0.2982,0.3024,0.3039,0.3093,0.3047,0.3126,0.3086,0.3102,0.3111,0.3116,0.3173,0.3139,0.2903,0.2938,0.3157,0.3155,0.3154,0.3152,0,0.2534,0.2609,0.2653,0.2678,0.276,0.279,0.2833,0.2905,0.2956,0.3034,0.3084,0.3135,0.3182,0.3204,0.3238,0.3188,0.3329,0.3259,0.3343,0.3348,0.3037,0.3013,0.3322,0.3322,0.3322,0.3322,0.3321,0,0.2537,0.2571,0.2645,0.2671,0.2724,0.2783,0.2849,0.2901,0.2996,0.3069,0.3116,0.3201,0.3223,0.3304,0.3297,0.3397,0.3386,0.3392,0.3402,0.305,0.3026,0.3225,0.3211,0.3327,0.3326,0.3325,0.3324,0,0.2501,0.2555,0.2605,0.2688,0.2715,0.2748,0.2854,0.2904,0.3002,0.3107,0.3142,0.3279,0.3404,0.3443,0.3513,0.3505,0.3563,0.359,0.3202,0.3168,0.3537,0.3525,0.3706,0.371,0.3713,0.3716,0.3718,0,0.2485,0.251,0.2595,0.2625,0.2661,0.2726,0.2773,0.2884,0.2954,0.3161,0.3216,0.3395,0.3502,0.3672,0.3618,0.3656,0.371,0.3413,0.3261,0.3592,0.3583,0.3565,0.3549,0.2852,0.2847,0.2843,0.284,0,0.2446,0.2476,0.2519,0.2584,0.2633,0.2692,0.2779,0.2839,0.2988,0.3092,0.3288,0.3404,0.3549,0.3444,0.3522,0.3486,0.3376,0.3346,0.3762,0.286,0.2811,0.2795,0.2801,0.2804,0.2807,0.281,0.2812,0.2813,0.24,0.2415,0.2477,0.2527,0.2586,0.2645,0.2662,0.2727,0.2827,0.2892,0.3152,0.3163,0.323,0.3148,0.3106,0.3058,0.329,0.3134,0.3134,0.3141,0.3064,0.3029,0.3048,0.3052,0.3057,0.306,0.3064,0,0.2307,0.2364,0.2417,0.2469,0.2469,0.2559,0.2649,0.2591,0.2596,0.2675,0.2744,0.2572,0.2528,0.2624,0.2461,0.2552,0.2379,0.2506,0.2198,0.2239,0.2274,0.214,0.1885,0.1881,0.1878,0.1875,0,0,0.2266,0.2274,0.2306,0.2309,0.2362,0.2313,0.2335,0.2264,0.2259,0.2174,0.2129,0.2241,0.2475,0.2072,0.2087,0.1962,0.2064,0.1887,0.2824,0.2494,0.2524,0.2634,0.2479,0,0,0,0,0]},{"header":{"parameterUnit":"m.s-1","parameterCategory":2,"la1":30.2991,"la2":30.254,"lo1":-89.0895,"lo2":-89.0444,"dy":0.0017,"dx":0.0017,"nx":28,"ny":28,"refTime":"2024-11-28T09:00:00:Z","depth":"2","parameterNumber":3,"parameterNumberName":"V-component_of_CURRENTS"},"data":[0,0,0,0,0,0,0,0,0,0,0,0,0,0,0,0,0,0,0,0,0,0,0,0,0,0,0,0,0,0,0,0,0,0,0,0,0,0,0,0,0,0,0,0,0,0,0,0,0,0,0,0,0,0,0,0,0,0,-0.0475,-0.0476,0,-0.0532,-0.0533,-0.0533,-0.0574,-0.0574,-0.0575,-0.0575,-0.0621,-0.0622,-0.0623,0,0,0,0,0,0,0,0,0,0,0,0,0,-0.0443,-0.0443,-0.0475,-0.0476,-0.0476,-0.0532,-0.0533,-0.0533,-0.0574,-0.0574,-0.0575,-0.0575,-0.062,-0.0622,-0.0623,0,0,0,0,0,0,0,0,0,0,0,0,0,-0.0474,-0.0443,-0.0475,-0.0503,-0.0506,-0.0532,-0.0533,-0.0534,-0.0574,-0.0574,-0.0575,-0.0575,-0.062,-0.0621,-0.0623,-0.0621,0,0,-0.0627,-0.0628,0,0,0,0,0,0,0,0,-0.0472,-0.0475,-0.0498,-0.0501,-0.0505,-0.0546,-0.0538,-0.0562,-0.0574,-0.0548,-0.0575,-0.0576,-0.0594,-0.0598,-0.0608,-0.0623,-0.0625,-0.0627,-0.0628,-0.0628,-0.0629,0,0,0,0,0,0,0,-0.047,-0.0473,-0.0498,-0.0499,-0.0503,-0.0527,-0.0532,-0.0543,-0.0568,-0.0551,-0.0554,-0.056,-0.0596,-0.0606,-0.0609,-0.0626,-0.0627,-0.0628,-0.0629,-0.063,-0.0648,-0.0648,0,0,0,0,0,0,-0.046,-0.047,-0.0496,-0.0499,-0.0489,-0.0527,-0.0533,-0.0533,-0.0568,-0.0574,-0.0559,-0.0561,-0.0604,-0.0607,-0.0611,-0.0604,-0.0628,-0.063,-0.0631,-0.0649,-0.0648,-0.0648,0,0,0,0,0,0,-0.0459,-0.0461,-0.0493,-0.0487,-0.0492,-0.0527,-0.0527,-0.0533,-0.0542,-0.0575,-0.0581,-0.0561,-0.0604,-0.0609,-0.0617,-0.0606,-0.063,-0.0632,-0.0649,-0.0648,-0.0648,-0.0594,0,0,0,0,0,0,-0.0457,-0.046,-0.0456,-0.0486,-0.0492,-0.0498,-0.0527,-0.0534,-0.0545,-0.0549,-0.0578,-0.0583,-0.0605,-0.0614,-0.0618,-0.0608,-0.0633,-0.0649,-0.0649,-0.0648,-0.0596,-0.0592,-0.0588,0,0,0,0,0,-0.0456,-0.0442,-0.0455,-0.0458,-0.0485,-0.0498,-0.0503,-0.053,-0.0545,-0.0541,-0.0564,-0.0582,-0.0613,-0.0615,-0.0619,-0.061,-0.065,-0.0649,-0.0648,-0.0598,-0.0592,-0.0588,0,0,0,0,0,0,-0.0422,-0.0445,-0.0461,-0.0454,-0.0472,-0.0504,-0.0503,-0.0524,-0.054,-0.0543,-0.0576,-0.0582,-0.0587,-0.0604,-0.0606,-0.0615,-0.0635,-0.0635,-0.0596,-0.0591,-0.0587,-0.0569,-0.0634,0,0,0,0,0,-0.0413,-0.041,-0.0438,-0.0432,-0.0438,-0.0471,-0.0479,-0.0497,-0.0517,-0.0525,-0.0548,-0.0571,-0.0587,-0.0593,-0.0611,-0.0611,-0.0638,-0.0609,-0.0605,-0.0601,-0.059,-0.0628,-0.0626,-0.0645,-0.0645,-0.0645,0,0,-0.0399,-0.0411,-0.041,-0.0425,-0.0442,-0.0439,-0.0476,-0.0482,-0.0479,-0.0526,-0.0527,-0.0556,-0.0584,-0.0589,-0.0592,-0.0601,-0.0611,-0.06,-0.0597,-0.0588,-0.0627,-0.0625,-0.0624,-0.0645,-0.0645,-0.0645,0,0,-0.0365,-0.0378,-0.0365,-0.0375,-0.0394,-0.0412,-0.041,-0.0439,-0.0451,-0.0458,-0.0492,-0.0513,-0.0536,-0.0556,-0.0568,-0.055,-0.0589,-0.0558,-0.052,-0.0557,-0.0555,-0.0554,-0.059,-0.0593,-0.0554,-0.0554,-0.0554,0,-0.0348,-0.0335,-0.0363,-0.0352,-0.0352,-0.0394,-0.0376,-0.0393,-0.0421,-0.0426,-0.0448,-0.0491,-0.0519,-0.0525,-0.0523,-0.0539,-0.0568,-0.0535,-0.0551,-0.0551,-0.0551,-0.0588,-0.0591,-0.0551,-0.0552,-0.0552,-0.0552,0,-0.0307,-0.0297,-0.0287,-0.0287,-0.029,-0.028,-0.0306,-0.0312,-0.0335,-0.0359,-0.0376,-0.0422,-0.0447,-0.0463,-0.0487,-0.0498,-0.0521,-0.0543,-0.0561,-0.0545,-0.0586,-0.059,-0.0547,-0.0548,-0.0549,-0.055,0,0,-0.0265,-0.0259,-0.0255,-0.0239,-0.0253,-0.0246,-0.024,-0.0245,-0.0237,-0.0282,-0.0278,-0.0324,-0.0361,-0.0378,-0.0419,-0.0453,-0.0485,-0.0493,-0.0496,-0.0524,-0.0568,-0.0596,-0.0604,-0.0512,-0.0513,-0.0513,-0.0597,0,-0.0223,-0.0182,-0.0194,-0.0152,-0.013,-0.0159,-0.0144,-0.0157,-0.0183,-0.0193,-0.0252,-0.0267,-0.0324,-0.0338,-0.0381,-0.0454,-0.0495,-0.046,-0.0583,-0.0586,-0.0609,-0.061,-0.0538,-0.0607,-0.0602,-0.0603,-0.0604,0,-0.0177,-0.0154,-0.0103,-0.0074,-0.0067,-0.0051,-0.0035,-0.0032,-0.0063,-0.0085,-0.0125,-0.0174,-0.0225,-0.028,-0.04,-0.0376,-0.0464,-0.053,-0.0536,-0.0581,-0.0623,-0.0623,-0.0617,-0.0612,-0.0612,-0.0611,-0.0611,0,-0.0123,-0.0088,-0.0041,-0.0032,-0.001,0.0009,0.0015,0.0001,0.0018,-0.0022,-0.0018,-0.0099,-0.0128,-0.0248,-0.0383,-0.0395,-0.052,-0.0556,-0.0666,-0.0669,-0.064,-0.064,-0.0645,-0.0645,-0.0645,-0.0645,-0.0644,0,-0.0069,-0.003,-0.0011,0.0018,0.0081,0.0066,0.0117,0.0108,0.0103,0.0139,0.0042,0.0053,-0.0122,-0.0212,-0.0355,-0.0518,-0.0502,-0.0657,-0.0691,-0.0621,-0.0618,-0.0647,-0.0646,-0.0648,-0.0647,-0.0646,-0.0646,0,-0.0013,-0.0003,0.0056,0.0091,0.0111,0.0151,0.0193,0.0226,0.0206,0.0248,0.0244,0.0165,0.0048,-0.0134,-0.0324,-0.0469,-0.063,-0.0694,-0.06,-0.0623,-0.0765,-0.076,-0.0832,-0.0834,-0.0835,-0.0836,-0.0837,0,0.0022,0.006,0.0119,0.0165,0.0186,0.0239,0.0286,0.0281,0.0325,0.0332,0.0371,0.0269,0.0235,-0.0064,-0.0314,-0.0569,-0.0636,-0.0721,-0.0739,-0.0757,-0.0784,-0.0777,-0.077,-0.0681,-0.0681,-0.0681,-0.068,0,0.0098,0.0115,0.0167,0.0258,0.0317,0.0384,0.0449,0.0503,0.0514,0.0557,0.0603,0.0575,0.0311,0.0086,-0.0287,-0.0465,-0.0678,-0.0726,-0.0761,-0.0647,-0.0623,-0.0646,-0.0644,-0.0677,-0.0678,-0.0678,-0.0678,-0.0678,0.0161,0.021,0.028,0.0369,0.0439,0.0536,0.0605,0.0699,0.0796,0.0891,0.0813,0.0796,0.0489,0.0071,-0.0254,-0.0615,-0.0628,-0.0775,-0.0772,-0.0771,-0.0741,-0.072,-0.0788,-0.0788,-0.0789,-0.079,-0.079,0,0.027,0.0306,0.0392,0.0497,0.0601,0.0602,0.0726,0.0827,0.0986,0.1048,0.1094,0.0859,0.0563,0.019,-0.0305,-0.0631,-0.0632,-0.0765,-0.069,-0.069,-0.0692,-0.0655,-0.0681,-0.0682,-0.0682,-0.0683,0,0,0.0328,0.0438,0.0478,0.0647,0.0702,0.0849,0.0925,0.1077,0.1166,0.1284,0.1268,0.1172,0.0696,0.0359,-0.008,-0.0381,-0.0465,-0.0443,-0.0496,-0.0357,-0.0354,-0.0665,-0.0606,0,0,0,0,0]}],[{"header":{"parameterUnit":"m.s-1","parameterCategory":2,"la1":30.2991,"la2":30.254,"lo1":-89.0895,"lo2":-89.0444,"dy":0.0017,"dx":0.0017,"nx":28,"ny":28,"refTime":"2024-11-28T09:00:00:Z","depth":"4","parameterNumber":2,"parameterNumberName":"U-component_of_CURRENTS"},"data":[0,0,0,0,0,0,0,0,0,0,0,0,0,0,0,0,0,0,0,0,0,0,0,0,0,0,0,0,0,0,0,0,0,0,0,0,0,0,0,0,0,0,0,0,0,0,0,0,0,0,0,0,0,0,0,0,0,0,0.1536,0.1537,0,0.1605,0.1606,0.1607,0.1661,0.1662,0.1663,0.1663,0.1733,0.1734,0.1736,0,0,0,0,0,0,0,0,0,0,0,0,0,0.1445,0.1446,0.1536,0.1537,0.1538,0.1605,0.1606,0.1607,0.1661,0.1662,0.1663,0.1663,0.1733,0.1734,0.1736,0,0,0,0,0,0,0,0,0,0,0,0,0,0.1494,0.1446,0.1536,0.1574,0.1579,0.1605,0.1606,0.1607,0.1661,0.1662,0.1663,0.1664,0.1732,0.1734,0.1736,0.1726,0,0,0.1741,0.1742,0,0,0,0,0,0,0,0,0.1492,0.1497,0.1568,0.1572,0.1577,0.1627,0.16,0.1648,0.1661,0.1628,0.1663,0.1664,0.1698,0.1703,0.1711,0.1729,0.1733,0.1742,0.1743,0.1743,0.1744,0,0,0,0,0,0,0,0.1488,0.1495,0.1561,0.1569,0.1574,0.1587,0.1595,0.1609,0.1655,0.1631,0.1635,0.1646,0.1701,0.1709,0.1713,0.1734,0.1741,0.1743,0.1744,0.1745,0.1843,0.1844,0,0,0,0,0,0,0.1482,0.1492,0.1559,0.1564,0.1538,0.1588,0.1597,0.1608,0.1655,0.1663,0.1645,0.1648,0.1705,0.1711,0.1716,0.1798,0.1743,0.1745,0.1746,0.1841,0.1843,0.1844,0,0,0,0,0,0,0.148,0.1488,0.1557,0.1531,0.154,0.1588,0.1601,0.1609,0.1652,0.1666,0.1674,0.1683,0.1707,0.1713,0.1762,0.1797,0.1746,0.1748,0.1839,0.1842,0.1844,0.1903,0,0,0,0,0,0,0.1477,0.1486,0.1509,0.153,0.1542,0.1594,0.1601,0.161,0.1656,0.1661,0.1701,0.1706,0.1708,0.1759,0.1764,0.1799,0.1749,0.1837,0.184,0.1843,0.1899,0.1907,0.1914,0,0,0,0,0,0.1474,0.1494,0.1509,0.1519,0.1566,0.1596,0.1603,0.1639,0.1657,0.168,0.1711,0.1707,0.178,0.1762,0.1767,0.1803,0.1836,0.1839,0.1843,0.1896,0.1905,0.1913,0,0,0,0,0,0,0.1467,0.1503,0.1519,0.1551,0.1583,0.1606,0.1637,0.1656,0.1699,0.1716,0.1726,0.1734,0.179,0.1787,0.1767,0.184,0.1807,0.1812,0.1846,0.1855,0.1862,0.1867,0.1751,0,0,0,0,0,0.1475,0.1504,0.1533,0.1564,0.1583,0.1616,0.1639,0.1663,0.1695,0.1716,0.1744,0.1774,0.1801,0.1822,0.1843,0.1881,0.1885,0.1908,0.1915,0.1921,0.1929,0.196,0.197,0.1856,0.1855,0.1855,0,0,0.1482,0.1507,0.1524,0.1566,0.1596,0.1627,0.1634,0.1679,0.1714,0.1715,0.1783,0.1803,0.1817,0.1864,0.1889,0.1872,0.1959,0.1926,0.1931,0.1935,0.1964,0.1975,0.1985,0.1858,0.1857,0.1857,0,0,0.1499,0.1534,0.1561,0.159,0.164,0.1659,0.1679,0.1723,0.1756,0.181,0.1824,0.1868,0.191,0.1929,0.194,0.1999,0.1997,0.201,0.2053,0.2083,0.2093,0.2101,0.213,0.2141,0.2014,0.2014,0.2014,0,0.1509,0.1545,0.1575,0.1608,0.164,0.1677,0.1712,0.1747,0.1804,0.1835,0.1844,0.1925,0.1939,0.1992,0.2016,0.2016,0.2034,0.2018,0.2092,0.2101,0.2108,0.2136,0.2147,0.2017,0.2017,0.2016,0.2016,0,0.1535,0.1579,0.16,0.1655,0.1691,0.173,0.1775,0.1824,0.1868,0.1899,0.1976,0.2,0.2048,0.206,0.2059,0.2124,0.212,0.2098,0.2069,0.2123,0.2149,0.216,0.2022,0.202,0.2019,0.2019,0,0,0.1517,0.1602,0.1614,0.1651,0.1721,0.175,0.1817,0.188,0.1931,0.199,0.2054,0.2107,0.213,0.2145,0.2155,0.2182,0.2253,0.2172,0.2172,0.2199,0.2331,0.2208,0.2207,0.2249,0.2251,0.2253,0.2331,0,0.1532,0.16,0.164,0.1712,0.1749,0.1808,0.1864,0.1929,0.1988,0.2059,0.2101,0.2166,0.2159,0.2196,0.2225,0.2249,0.2282,0.2234,0.2276,0.2277,0.2159,0.2215,0.2259,0.2339,0.2341,0.2343,0.2344,0,0.1536,0.1586,0.1658,0.1747,0.177,0.182,0.192,0.1976,0.2073,0.2123,0.2194,0.2231,0.2303,0.2278,0.2356,0.2331,0.2343,0.235,0.2352,0.2221,0.2172,0.2271,0.2362,0.2361,0.236,0.2358,0.2357,0,0.1497,0.1593,0.1655,0.1686,0.1791,0.1843,0.1903,0.2001,0.2061,0.2174,0.2232,0.2309,0.2368,0.2397,0.243,0.2405,0.2499,0.2458,0.2359,0.2351,0.2412,0.2402,0.2507,0.2507,0.2507,0.2507,0.2506,0,0.1478,0.153,0.1649,0.1682,0.1756,0.1838,0.1928,0.1996,0.2108,0.2173,0.2268,0.2325,0.2403,0.2462,0.2467,0.2452,0.2534,0.2379,0.2364,0.2436,0.2428,0.242,0.2408,0.251,0.2509,0.2508,0.2508,0,0.1419,0.1499,0.1573,0.1698,0.174,0.1795,0.1931,0.1988,0.211,0.22,0.2244,0.2369,0.2438,0.2499,0.2555,0.2492,0.249,0.2463,0.2561,0.2549,0.2313,0.2305,0.235,0.2346,0.2343,0.2341,0.2338,0,0.139,0.1429,0.1568,0.1614,0.1676,0.1776,0.1836,0.1969,0.2026,0.2201,0.2225,0.2355,0.2416,0.2403,0.2475,0.2486,0.2454,0.2444,0.235,0.2317,0.2299,0.2295,0.229,0.2333,0.2333,0.2332,0.2331,0,0.1335,0.1401,0.1463,0.1558,0.1633,0.1705,0.1802,0.1831,0.1977,0.2109,0.2154,0.2198,0.2275,0.2312,0.2352,0.2349,0.2441,0.2411,0.2416,0.2327,0.2297,0.2281,0.2281,0.232,0.2322,0.2323,0.2323,0,0.1295,0.1319,0.1413,0.148,0.157,0.1605,0.1669,0.1734,0.1804,0.1982,0.1993,0.2125,0.2243,0.2244,0.2276,0.2274,0.2227,0.2144,0.2162,0.2175,0.2081,0.2015,0.1949,0,0,0,0,0,0.1242,0.1262,0.1327,0.1391,0.1474,0.1523,0.1633,0.17,0.1834,0.1814,0.1897,0.1954,0.2007,0.2081,0.2042,0.2209,0.2243,0.2156,0.2159,0.226,0.2273,0.2179,0,0,0,0,0,0,0.1208,0.1265,0.1291,0.1303,0.1329,0.1401,0.1463,0.1555,0.1551,0.1694,0.1728,0.1844,0.1921,0.2002,0.2004,0.2028,0.1993,0.2243,0.2239,0.2253,0.2265,0.2275,0.2182,0,0,0,0,0]},{"header":{"parameterUnit":"m.s-1","parameterCategory":2,"la1":30.2991,"la2":30.254,"lo1":-89.0895,"lo2":-89.0444,"dy":0.0017,"dx":0.0017,"nx":28,"ny":28,"refTime":"2024-11-28T09:00:00:Z","depth":"4","parameterNumber":3,"parameterNumberName":"V-component_of_CURRENTS"},"data":[0,0,0,0,0,0,0,0,0,0,0,0,0,0,0,0,0,0,0,0,0,0,0,0,0,0,0,0,0,0,0,0,0,0,0,0,0,0,0,0,0,0,0,0,0,0,0,0,0,0,0,0,0,0,0,0,0,0,0.0196,0.0196,0,0.014,0.014,0.0139,0.0112,0.0112,0.0113,0.0113,0.0061,0.006,0.0058,0,0,0,0,0,0,0,0,0,0,0,0,0,0.024,0.024,0.0196,0.0196,0.0195,0.0141,0.014,0.0139,0.0112,0.0112,0.0113,0.0113,0.0062,0.006,0.0058,0,0,0,0,0,0,0,0,0,0,0,0,0,0.0206,0.024,0.0196,0.0176,0.0173,0.0141,0.014,0.0139,0.0112,0.0112,0.0113,0.0113,0.0062,0.006,0.0058,0.0043,0,0,0.0051,0.005,0,0,0,0,0,0,0,0,0.0208,0.0205,0.0179,0.0177,0.0174,0.0134,0.0136,0.0107,0.0112,0.0135,0.0113,0.0113,0.0086,0.0082,0.0071,0.0041,0.0038,0.0051,0.005,0.0049,0.0048,0,0,0,0,0,0,0,0.0211,0.0207,0.0174,0.0179,0.0175,0.0155,0.0151,0.013,0.0111,0.0133,0.0131,0.0125,0.0085,0.0073,0.0069,0.0038,0.0051,0.0049,0.0048,0.0047,-0.001,-0.001,0,0,0,0,0,0,0.022,0.0209,0.0176,0.0172,0.0192,0.0155,0.015,0.0146,0.0111,0.0105,0.0125,0.0124,0.0076,0.0072,0.0067,0.005,0.0049,0.0047,0.0046,-0.001,-0.001,-0.001,0,0,0,0,0,0,0.0221,0.0218,0.0178,0.0189,0.0183,0.0154,0.015,0.0145,0.0135,0.0105,0.0099,0.0121,0.0076,0.007,0.005,0.0047,0.0046,0.0044,-0.0009,-0.001,-0.001,0.0013,0,0,0,0,0,0,0.0223,0.0219,0.0221,0.019,0.0183,0.0164,0.015,0.0144,0.0131,0.0129,0.0099,0.0094,0.0076,0.0054,0.0048,0.0044,0.0042,-0.0009,-0.001,-0.001,0.0012,0.0013,0.0014,0,0,0,0,0,0.0225,0.023,0.0222,0.0218,0.0187,0.0164,0.0158,0.0137,0.0131,0.0128,0.0106,0.0095,0.0047,0.0052,0.0045,0.0041,-0.0009,-0.001,-0.001,0.0012,0.0013,0.0014,0,0,0,0,0,0,0.025,0.0227,0.0217,0.0215,0.0193,0.016,0.0157,0.014,0.0119,0.0119,0.0091,0.0085,0.0066,0.005,0.0056,0.0023,0.0017,0.0015,0.0036,0.0037,0.0038,0.0054,0.0041,0,0,0,0,0,0.0257,0.0256,0.0226,0.0225,0.0217,0.0187,0.0176,0.016,0.0136,0.0127,0.0104,0.008,0.0058,0.0046,0.0025,0.0007,-0.0014,-0.0001,0.0,0.0001,0.001,-0.0029,-0.0031,-0.0012,-0.0012,-0.0012,0,0,0.0267,0.0254,0.0253,0.0231,0.0213,0.0206,0.018,0.0166,0.0159,0.0125,0.011,0.0083,0.0054,0.0033,0.0023,0.002,-0.0016,0.0,0.0002,0.001,-0.003,-0.0031,-0.0033,-0.0012,-0.0012,-0.0012,0,0,0.0287,0.0274,0.028,0.0264,0.0241,0.0221,0.0219,0.0186,0.0171,0.015,0.0124,0.0096,0.0063,0.0039,0.0024,0.0017,-0.001,0.0008,0.0025,-0.0013,-0.0015,-0.0017,-0.0048,-0.0053,0.0008,0.0008,0.0008,0,0.0301,0.0303,0.0277,0.0277,0.0271,0.0232,0.0236,0.0213,0.0176,0.0166,0.0152,0.0095,0.0067,0.0041,0.0036,0.0019,-0.0004,0.0024,-0.0012,-0.0014,-0.0016,-0.0048,-0.0054,0.0009,0.0009,0.0009,0.0009,0,0.0321,0.0323,0.0325,0.0315,0.0303,0.0299,0.0267,0.0252,0.0228,0.0201,0.0169,0.0123,0.0092,0.0071,0.005,0.0021,0.0008,-0.0005,-0.0012,-0.0016,-0.005,-0.0056,0.001,0.001,0.001,0.0009,0,0,0.0358,0.0345,0.0347,0.0353,0.0325,0.0321,0.0308,0.0286,0.0284,0.0233,0.0223,0.0165,0.0135,0.0115,0.0077,0.0039,-0.0005,0.0013,0.001,-0.0014,-0.0088,-0.0091,-0.0098,-0.0027,-0.0028,-0.0029,-0.0106,0,0.0386,0.0402,0.0383,0.04,0.0406,0.0372,0.0369,0.0342,0.0309,0.0288,0.0226,0.0202,0.0153,0.0138,0.0089,0.0024,-0.0019,0.0018,-0.0083,-0.0086,-0.0085,-0.0104,-0.0032,-0.0111,-0.0112,-0.0113,-0.0114,0,0.0415,0.0424,0.0449,0.0452,0.0453,0.0455,0.0448,0.0437,0.039,0.0366,0.0317,0.0268,0.0205,0.0166,0.0045,0.007,-0.0004,-0.0061,-0.0066,-0.0078,-0.01,-0.0106,-0.0126,-0.0125,-0.0124,-0.0123,-0.0122,0,0.0463,0.0471,0.0499,0.0498,0.0494,0.0501,0.0495,0.0462,0.0468,0.0414,0.041,0.0318,0.0284,0.0175,0.0049,0.0045,-0.0083,-0.0103,-0.0177,-0.0178,-0.0161,-0.0159,-0.0189,-0.0189,-0.0189,-0.0188,-0.0188,0,0.0498,0.0522,0.0526,0.0542,0.058,0.0554,0.0584,0.0559,0.0542,0.0551,0.0458,0.0441,0.0284,0.0189,0.0067,-0.0072,-0.0074,-0.0175,-0.02,-0.0151,-0.0146,-0.0166,-0.0163,-0.0191,-0.0191,-0.019,-0.019,0,0.054,0.0544,0.058,0.0592,0.0605,0.0629,0.0653,0.0668,0.0642,0.065,0.064,0.0536,0.04,0.0241,0.0062,-0.0035,-0.0174,-0.0223,-0.0152,-0.0172,-0.0249,-0.0243,-0.0314,-0.0315,-0.0315,-0.0316,-0.0316,0,0.0558,0.0584,0.0626,0.0655,0.0663,0.0701,0.0729,0.0722,0.0738,0.0706,0.0713,0.0594,0.0501,0.0255,0.0076,-0.016,-0.0196,-0.0262,-0.0267,-0.0245,-0.0263,-0.0256,-0.025,-0.0317,-0.0318,-0.0318,-0.0318,0,0.0592,0.0614,0.0643,0.0707,0.0747,0.0797,0.083,0.0855,0.0843,0.0832,0.0771,0.0629,0.0475,0.0262,0.0077,-0.0093,-0.0216,-0.0269,-0.0269,-0.0275,-0.0251,-0.0266,-0.0259,-0.032,-0.032,-0.032,-0.032,0,0.062,0.0647,0.0692,0.0744,0.0804,0.0856,0.0876,0.0886,0.0902,0.0859,0.0839,0.0659,0.0555,0.0297,0.0129,-0.0043,-0.0092,-0.014,-0.0148,-0.0147,-0.0082,-0.0026,-0.0048,0,0,0,0,0,0.0636,0.0668,0.0721,0.0776,0.0836,0.0876,0.0927,0.0938,0.0937,0.0904,0.0872,0.0722,0.0456,0.0342,0.0168,0.0104,-0.0126,-0.0104,-0.0185,-0.0333,-0.033,-0.0283,0,0,0,0,0,0,0.0646,0.07,0.0722,0.0793,0.0836,0.0907,0.0943,0.0946,0.0925,0.0898,0.076,0.0687,0.0428,0.0555,0.0168,0.0114,0.0041,-0.0229,-0.0233,-0.0335,-0.0332,-0.033,-0.0281,0,0,0,0,0]}]]